[[{"header":{"parameterUnit":"m.s-1","parameterCategory":1,"la1":30.2991,"la2":30.254,"lo1":-89.0895,"lo2":-89.0444,"dy":0.0017,"dx":0.0017,"nx":28,"ny":28,"refTime":"2024-04-18T03:00:00:Z","depth":0,"parameterNumber":2,"parameterNumberName":"U-component_of_WINDS"},"data":[0,0,0,0,0,0,0,0,0,0,0,0,0,0,0,0,0,0,0,0,0,0,0,0,0,0,0,0,0,0,0,0,0,0,0,0,0,0,0,0,0,0,0,0,0,0,0,0,0,0,0,0,0,0,0,0,0,0,-0.6509,-0.6509,0,-0.6454,-0.6454,-0.6453,-0.642,-0.6419,-0.6419,-0.6419,-0.6366,-0.6364,-0.6363,0,0,0,0,0,0,0,0,0,0,0,0,0,-0.6588,-0.6587,-0.6509,-0.6509,-0.6508,-0.6454,-0.6454,-0.6453,-0.642,-0.6419,-0.6419,-0.6419,-0.6366,-0.6364,-0.6363,0,0,0,0,0,0,0,0,0,0,0,0,0,-0.6546,-0.6587,-0.6509,-0.6485,-0.6482,-0.6455,-0.6454,-0.6453,-0.642,-0.6419,-0.6419,-0.6419,-0.6366,-0.6365,-0.6363,-0.6356,0,0,-0.6357,-0.6356,0,0,0,0,0,0,0,0,-0.6548,-0.6543,-0.6489,-0.6486,-0.6483,-0.6443,-0.6462,-0.6421,-0.642,-0.6443,-0.6419,-0.6419,-0.6392,-0.6388,-0.6378,-0.6354,-0.6352,-0.6357,-0.6356,-0.6355,-0.6354,0,0,0,0,0,0,0,-0.6551,-0.6545,-0.6488,-0.6488,-0.6485,-0.6477,-0.6471,-0.6454,-0.642,-0.6441,-0.6439,-0.6433,-0.639,-0.638,-0.6377,-0.6351,-0.6357,-0.6355,-0.6354,-0.6353,-0.6319,-0.6319,0,0,0,0,0,0,-0.6558,-0.6548,-0.6489,-0.6486,-0.6516,-0.6476,-0.6469,-0.6457,-0.642,-0.6414,-0.6433,-0.6431,-0.6383,-0.6379,-0.6375,-0.6365,-0.6355,-0.6353,-0.6352,-0.6319,-0.6319,-0.6319,0,0,0,0,0,0,-0.656,-0.6553,-0.6492,-0.6516,-0.6508,-0.6475,-0.6461,-0.6456,-0.6445,-0.6413,-0.6408,-0.6429,-0.6383,-0.6377,-0.6361,-0.6363,-0.6352,-0.6351,-0.6319,-0.6319,-0.6319,-0.6345,0,0,0,0,0,0,-0.6562,-0.6554,-0.655,-0.6516,-0.6507,-0.6478,-0.6461,-0.6455,-0.6442,-0.6439,-0.6408,-0.6403,-0.6382,-0.6364,-0.6359,-0.636,-0.6349,-0.6318,-0.6319,-0.6319,-0.6344,-0.6347,-0.6349,0,0,0,0,0,-0.6565,-0.656,-0.655,-0.6543,-0.6501,-0.6478,-0.6473,-0.6449,-0.6442,-0.6439,-0.6419,-0.6403,-0.6363,-0.6363,-0.6357,-0.6357,-0.6318,-0.6319,-0.6319,-0.6343,-0.6346,-0.6349,0,0,0,0,0,0,-0.6596,-0.6555,-0.6544,-0.6528,-0.6507,-0.6473,-0.6468,-0.6453,-0.6434,-0.6432,-0.6404,-0.6398,-0.6384,-0.6369,-0.6369,-0.6349,-0.6339,-0.6339,-0.6359,-0.6362,-0.6364,-0.6368,-0.6347,0,0,0,0,0,-0.6601,-0.6585,-0.655,-0.654,-0.653,-0.6501,-0.649,-0.6473,-0.645,-0.6441,-0.642,-0.6399,-0.6382,-0.6371,-0.6354,-0.6342,-0.6335,-0.6339,-0.6342,-0.6344,-0.6343,-0.6336,-0.6338,-0.6321,-0.6321,-0.6321,0,0,-0.6611,-0.6587,-0.6578,-0.6545,-0.6527,-0.6511,-0.6493,-0.6478,-0.6466,-0.6439,-0.6422,-0.6406,-0.6381,-0.6367,-0.636,-0.6354,-0.6346,-0.6344,-0.6346,-0.6345,-0.6337,-0.6339,-0.634,-0.6322,-0.6321,-0.6321,0,0,-0.6622,-0.6602,-0.659,-0.6572,-0.6544,-0.6525,-0.6523,-0.6491,-0.6478,-0.6461,-0.6441,-0.6427,-0.6398,-0.6381,-0.6369,-0.6374,-0.6359,-0.6369,-0.638,-0.6374,-0.6375,-0.6376,-0.6378,-0.6379,-0.6369,-0.6369,-0.6369,0,-0.6638,-0.6613,-0.6587,-0.6572,-0.6558,-0.6533,-0.6522,-0.6506,-0.6474,-0.6466,-0.646,-0.6422,-0.6404,-0.6386,-0.6387,-0.6378,-0.6375,-0.6372,-0.6377,-0.6377,-0.6378,-0.6379,-0.638,-0.637,-0.637,-0.637,-0.637,0,-0.6634,-0.6617,-0.6612,-0.6581,-0.6567,-0.6554,-0.6527,-0.6516,-0.6501,-0.6483,-0.6466,-0.6443,-0.642,-0.6415,-0.64,-0.6395,-0.6392,-0.6382,-0.6371,-0.6381,-0.6382,-0.6382,-0.6372,-0.6371,-0.6371,-0.6371,0,0,-0.6663,-0.6617,-0.6616,-0.6601,-0.6569,-0.6556,-0.6542,-0.6519,-0.651,-0.649,-0.6478,-0.6454,-0.6444,-0.6431,-0.6414,-0.6409,-0.6414,-0.6399,-0.6398,-0.6402,-0.6407,-0.6415,-0.6416,-0.6405,-0.6405,-0.6405,-0.6409,0,-0.6668,-0.6641,-0.6618,-0.66,-0.6584,-0.656,-0.6549,-0.6528,-0.6511,-0.6496,-0.6478,-0.6461,-0.6449,-0.6441,-0.6434,-0.6415,-0.6415,-0.6414,-0.6394,-0.6394,-0.6401,-0.6416,-0.6424,-0.6429,-0.6409,-0.6409,-0.6409,0,-0.6671,-0.665,-0.6631,-0.66,-0.6592,-0.6582,-0.6559,-0.6545,-0.6522,-0.651,-0.6494,-0.6477,-0.6463,-0.6454,-0.6434,-0.6435,-0.6425,-0.6415,-0.6414,-0.6411,-0.6402,-0.6413,-0.643,-0.6431,-0.6409,-0.6409,-0.6409,0,-0.6693,-0.6661,-0.6645,-0.6633,-0.6597,-0.659,-0.6575,-0.6551,-0.6539,-0.652,-0.6512,-0.6491,-0.648,-0.6465,-0.6443,-0.6439,-0.6426,-0.6415,-0.6416,-0.6417,-0.6414,-0.6415,-0.643,-0.6409,-0.6409,-0.6409,-0.6409,0,-0.6702,-0.6691,-0.6654,-0.6644,-0.6632,-0.6605,-0.6594,-0.6577,-0.6556,-0.6543,-0.6522,-0.651,-0.6482,-0.6468,-0.6451,-0.6437,-0.6433,-0.6423,-0.6419,-0.6425,-0.6426,-0.6418,-0.6417,-0.6409,-0.6409,-0.6409,-0.6409,0,-0.6725,-0.6699,-0.668,-0.6647,-0.6639,-0.6631,-0.6603,-0.6593,-0.6575,-0.6559,-0.6554,-0.6526,-0.6508,-0.6485,-0.646,-0.6448,-0.6437,-0.643,-0.6445,-0.6442,-0.6444,-0.6444,-0.6454,-0.6454,-0.6434,-0.6434,-0.6434,0,-0.6731,-0.6722,-0.6688,-0.6677,-0.6662,-0.6646,-0.6633,-0.6607,-0.6595,-0.6567,-0.6561,-0.6541,-0.6524,-0.6497,-0.6475,-0.6456,-0.6448,-0.6453,-0.6445,-0.6452,-0.6448,-0.6449,-0.6448,-0.6455,-0.6455,-0.6456,-0.6456,0,-0.6747,-0.6734,-0.6716,-0.6693,-0.6678,-0.6659,-0.664,-0.6633,-0.6603,-0.6591,-0.6571,-0.6558,-0.6532,-0.6513,-0.6491,-0.6476,-0.6462,-0.6459,-0.6458,-0.6464,-0.6472,-0.6468,-0.645,-0.6458,-0.6458,-0.6458,-0.6458,-0.6458,-0.6761,-0.6752,-0.6726,-0.6707,-0.6689,-0.6671,-0.666,-0.664,-0.6623,-0.6599,-0.6586,-0.6567,-0.6545,-0.6513,-0.65,-0.6486,-0.648,-0.6479,-0.6478,-0.6478,-0.648,-0.6475,-0.6482,-0.6481,-0.6481,-0.6481,-0.6481,0,-0.6775,-0.6757,-0.6739,-0.6712,-0.6697,-0.6683,-0.6661,-0.6649,-0.6633,-0.6613,-0.6596,-0.6574,-0.6555,-0.6532,-0.6512,-0.6505,-0.6498,-0.6501,-0.6501,-0.6498,-0.6487,-0.6489,-0.6507,-0.6507,-0.6507,-0.6507,-0.6507,-0.6507,-0.6781,-0.6764,-0.6749,-0.6724,-0.6706,-0.6687,-0.6675,-0.6659,-0.6643,-0.6619,-0.6603,-0.6587,-0.6566,-0.6545,-0.6527,-0.6521,-0.6515,-0.652,-0.6511,-0.6501,-0.6499,-0.6497,-0.6499,-0.6519,-0.6519,-0.6524,-0.6524,-0.6524]},{"header":{"parameterUnit":"m.s-1","parameterCategory":1,"la1":30.2991,"la2":30.254,"lo1":-89.0895,"lo2":-89.0444,"dy":0.0017,"dx":0.0017,"nx":28,"ny":28,"refTime":"2024-04-18T03:00:00:Z","depth":0,"parameterNumber":3,"parameterNumberName":"V-component_of_WINDS"},"data":[0,0,0,0,0,0,0,0,0,0,0,0,0,0,0,0,0,0,0,0,0,0,0,0,0,0,0,0,0,0,0,0,0,0,0,0,0,0,0,0,0,0,0,0,0,0,0,0,0,0,0,0,0,0,0,0,0,0,3.1065,3.1065,0,3.1089,3.1089,3.1089,3.1067,3.1066,3.1065,3.1064,3.1085,3.1087,3.1088,0,0,0,0,0,0,0,0,0,0,0,0,0,3.0998,3.1,3.1065,3.1065,3.1066,3.1089,3.1089,3.1089,3.1067,3.1066,3.1065,3.1064,3.1085,3.1086,3.1088,0,0,0,0,0,0,0,0,0,0,0,0,0,3.1025,3.1,3.1065,3.1057,3.1057,3.1088,3.1089,3.1089,3.1067,3.1066,3.1064,3.1063,3.1084,3.1086,3.1088,3.1128,0,0,3.1095,3.1096,0,0,0,0,0,0,0,0,3.1023,3.1027,3.1058,3.1058,3.1058,3.1073,3.1073,3.1102,3.1067,3.1063,3.1064,3.1062,3.1082,3.1084,3.1091,3.1129,3.113,3.1095,3.1096,3.1097,3.1098,0,0,0,0,0,0,0,3.1022,3.1026,3.1074,3.1059,3.1058,3.1052,3.1054,3.1078,3.108,3.1063,3.1062,3.1065,3.1082,3.109,3.1092,3.113,3.1095,3.1097,3.1098,3.1099,3.12,3.1202,0,0,0,0,0,0,3.1021,3.1025,3.1074,3.1075,3.1037,3.1054,3.1057,3.107,3.1079,3.108,3.1066,3.1064,3.1087,3.1089,3.1092,3.1139,3.1097,3.1099,3.11,3.1199,3.12,3.1202,0,0,0,0,0,0,3.102,3.1026,3.1073,3.105,3.1055,3.1057,3.1071,3.1071,3.1079,3.1082,3.1081,3.1074,3.1086,3.109,3.1119,3.114,3.11,3.1102,3.1197,3.1199,3.1201,3.1233,0,0,0,0,0,0,3.1018,3.1025,3.1041,3.105,3.1056,3.11,3.1073,3.1072,3.1083,3.108,3.1089,3.1089,3.1085,3.1116,3.1121,3.1142,3.1103,3.1195,3.1198,3.1201,3.123,3.1236,3.1241,0,0,0,0,0,3.1016,3.1048,3.1042,3.1048,3.1076,3.1101,3.1105,3.11,3.1084,3.11,3.1101,3.1089,3.1137,3.1119,3.1125,3.1146,3.1194,3.1197,3.12,3.1228,3.1235,3.1241,0,0,0,0,0,0,3.104,3.1049,3.1042,3.1079,3.109,3.1097,3.1117,3.1108,3.1122,3.1119,3.1111,3.1114,3.1145,3.1149,3.1129,3.1185,3.1163,3.1167,3.1182,3.1188,3.1194,3.1192,3.1105,0,0,0,0,0,3.105,3.1071,3.1077,3.1109,3.1115,3.1115,3.1126,3.1121,3.1131,3.1135,3.1139,3.1149,3.1166,3.1177,3.1193,3.1231,3.1232,3.1248,3.1253,3.1258,3.1262,3.1282,3.1289,3.1213,3.1213,3.1213,0,0,3.1071,3.1078,3.1092,3.1114,3.1122,3.1143,3.1119,3.1141,3.1156,3.1138,3.1167,3.117,3.118,3.1214,3.1229,3.1218,3.1283,3.1262,3.1266,3.1267,3.1286,3.1293,3.1299,3.1215,3.1215,3.1214,0,0,3.1119,3.1127,3.1154,3.1163,3.1175,3.1175,3.1181,3.119,3.1192,3.1221,3.1208,3.1225,3.1255,3.1262,3.127,3.1321,3.131,3.1326,3.1355,3.1374,3.138,3.1385,3.1403,3.141,3.133,3.133,3.133,0,3.1143,3.1174,3.1169,3.1193,3.1203,3.1189,3.1216,3.1224,3.1241,3.1248,3.1235,3.1272,3.1278,3.1313,3.1326,3.1333,3.1339,3.1325,3.138,3.1385,3.139,3.1407,3.1414,3.1332,3.1332,3.1332,3.1332,0,3.1202,3.1224,3.1245,3.1262,3.1275,3.13,3.1299,3.1311,3.1306,3.1307,3.1336,3.1342,3.1359,3.1367,3.1362,3.1402,3.1394,3.1381,3.1358,3.1399,3.1415,3.1422,3.1335,3.1334,3.1334,3.1333,0,0,3.1267,3.1282,3.1289,3.1297,3.1309,3.1326,3.135,3.1367,3.1379,3.139,3.141,3.1436,3.1423,3.1432,3.1427,3.1444,3.1484,3.1429,3.1429,3.1439,3.1529,3.1539,3.1546,3.1477,3.1478,3.1479,3.1528,0,3.1315,3.1359,3.1356,3.1396,3.1416,3.1403,3.1424,3.1433,3.1435,3.1451,3.1452,3.147,3.1453,3.1458,3.1474,3.1476,3.1502,3.1472,3.1495,3.1496,3.1493,3.1555,3.1566,3.1611,3.1534,3.1535,3.1536,0,3.1378,3.1393,3.1436,3.1445,3.1454,3.1473,3.1489,3.1505,3.1515,3.1514,3.1524,3.1516,3.154,3.1517,3.1549,3.1529,3.1538,3.154,3.1542,3.1544,3.1518,3.1558,3.1626,3.1632,3.1545,3.1545,3.1544,0,3.1421,3.1451,3.1481,3.1488,3.15,3.1514,3.1519,3.1528,3.1538,3.1552,3.1558,3.1574,3.1582,3.1594,3.159,3.1574,3.1624,3.16,3.1623,3.1624,3.1634,3.1634,3.1704,3.164,3.164,3.164,3.164,0,3.1475,3.1502,3.1501,3.1519,3.1549,3.1544,3.1573,3.1576,3.1584,3.1602,3.1591,3.1608,3.1602,3.1618,3.1615,3.1642,3.1646,3.1646,3.1645,3.1647,3.1647,3.1653,3.165,3.1642,3.1641,3.1641,3.1641,0,3.1528,3.1528,3.156,3.1568,3.1571,3.1593,3.1599,3.1616,3.1617,3.164,3.1645,3.1645,3.1664,3.1662,3.1682,3.168,3.1714,3.1709,3.1711,3.171,3.1733,3.1731,3.181,3.182,3.1749,3.175,3.175,0,3.1563,3.1584,3.1595,3.1606,3.1613,3.1632,3.1643,3.1639,3.1651,3.1664,3.1679,3.1697,3.1711,3.1741,3.1743,3.1759,3.1754,3.178,3.1756,3.1758,3.1754,3.1753,3.1755,3.1785,3.1786,3.1787,3.1787,0,3.1625,3.1624,3.1641,3.1658,3.1672,3.1685,3.1697,3.1707,3.1703,3.1717,3.1737,3.1748,3.1769,3.1787,3.1802,3.1806,3.1796,3.1795,3.1801,3.1803,3.1804,3.1804,3.1724,3.1793,3.1792,3.1792,3.1792,3.1791,3.167,3.1688,3.1698,3.1718,3.1726,3.1737,3.1754,3.1756,3.1773,3.1791,3.1787,3.1809,3.1818,3.1837,3.1843,3.1859,3.1849,3.1858,3.1861,3.1863,3.1866,3.1801,3.1862,3.1861,3.1861,3.1861,3.1861,0,3.1731,3.1738,3.1756,3.1773,3.1788,3.1778,3.179,3.1803,3.1823,3.1832,3.1847,3.1869,3.1886,3.1889,3.1905,3.1918,3.1914,3.1922,3.1922,3.1923,3.1874,3.1867,3.1926,3.1926,3.1926,3.1926,3.1926,3.1926,3.1765,3.1795,3.1795,3.1828,3.1834,3.1856,3.1864,3.1874,3.1882,3.1908,3.1922,3.1924,3.1931,3.1948,3.1963,3.1963,3.1969,3.198,3.1978,3.1933,3.1926,3.192,3.1913,3.1981,3.1981,3.2026,3.2027,3.2027]}]]